Location: Little Suamico
(44.7175°N, 88.0093°W)
Time: 16:11:10
(UTC+00:00)

ISS - Pass Details

Date: 28 April 2021
Orbit: 417 x 422 km, 51.6° (Epoch: 17 May)

Event Time Altitude Azimuth Distance (km) Brightness Sun altitude
Exits shadow 08:27:14 13° 128° (SE) 1,330 -1.2 -21.0°
Drops below altitude 10° 08:28:40 10° 103° (ESE) 1,501 -0.6 -20.8°
Sets 08:31:38 0° 74° (ENE) 2,372 1.0 -20.5°
